WAT5894 EKCH-ESGG

Flight info

Callsign WAT5894
Flight time 0h 27m
Altitude 18000
Route VEDAR L997 RISMA
Aircraft A359/H-SDE2E3GHIJ3J4J5LM1ORWXY/LB1D1

Departure

Time 2026-04-21 19:46
Airport Copenhagen Kastrup Airport (EKCH)

Arrival

Time 2026-04-21 20:13
Airport Göteborg Landvetter Airport (ESGG)
Time Latitude Longitude Altitude Speed Heading
2026-04-21 19:27 55.62360 12.65062 21 ft 0 kts 276°
2026-04-21 19:31 55.62430 12.65074 23 ft 0 kts 276°
2026-04-21 19:36 55.62429 12.65100 26 ft 3 kts 265°
2026-04-21 19:37 55.62432 12.65133 27 ft 3 kts 263°
2026-04-21 19:37 55.62433 12.65166 28 ft 3 kts 266°
2026-04-21 19:37 55.62434 12.65187 28 ft 3 kts 266°
2026-04-21 19:37 55.62436 12.65228 28 ft 2 kts 267°
2026-04-21 19:38 55.62436 12.65248 28 ft 3 kts 269°
2026-04-21 19:38 55.62437 12.65279 28 ft 2 kts 269°
2026-04-21 19:38 55.62437 12.65309 26 ft 2 kts 269°
2026-04-21 19:38 55.62438 12.65340 27 ft 2 kts 269°
2026-04-21 19:39 55.62438 12.65344 27 ft 0 kts 269°
2026-04-21 19:41 55.62438 12.65342 27 ft 1 kts 269°
2026-04-21 19:42 55.62428 12.65251 25 ft 11 kts 240°
2026-04-21 19:42 55.62349 12.65201 26 ft 17 kts 188°
2026-04-21 19:42 55.62237 12.65183 27 ft 5 kts 192°
2026-04-21 19:42 55.62167 12.65125 28 ft 17 kts 210°
2026-04-21 19:43 55.62034 12.64976 25 ft 28 kts 214°
2026-04-21 19:43 55.61845 12.64757 26 ft 37 kts 213°
2026-04-21 19:43 55.61658 12.64483 26 ft 31 kts 257°
2026-04-21 19:43 55.61646 12.64278 24 ft 0 kts 265°
2026-04-21 19:44 55.61644 12.64244 24 ft 8 kts 265°
2026-04-21 19:44 55.61632 12.64119 27 ft 10 kts 249°
2026-04-21 19:44 55.61588 12.64027 26 ft 11 kts 222°
2026-04-21 19:44 55.61522 12.63923 30 ft 14 kts 221°
2026-04-21 19:45 55.61441 12.63795 30 ft 17 kts 221°
2026-04-21 19:45 55.61344 12.63649 30 ft 19 kts 220°
2026-04-21 19:45 55.61098 12.63271 26 ft 85 kts 221°
2026-04-21 19:45 55.60484 12.62309 31 ft 151 kts 221°
2026-04-21 19:46 55.59581 12.60903 426 ft 172 kts 221°
2026-04-21 19:46 55.58717 12.59593 1597 ft 158 kts 224°
2026-04-21 19:46 55.57881 12.58301 2056 ft 170 kts 225°
2026-04-21 19:46 55.57110 12.56559 2265 ft 190 kts 248°
2026-04-21 19:47 55.56923 12.54181 2594 ft 202 kts 276°
2026-04-21 19:47 55.57069 12.51687 3045 ft 211 kts 283°
2026-04-21 19:47 55.57634 12.49162 3309 ft 233 kts 307°
2026-04-21 19:47 55.58945 12.47413 3771 ft 242 kts 342°
2026-04-21 19:48 55.60574 12.46689 4466 ft 246 kts 350°
2026-04-21 19:48 55.62271 12.46104 5201 ft 250 kts 351°
2026-04-21 19:48 55.63998 12.45502 5880 ft 255 kts 351°
2026-04-21 19:48 55.65757 12.44879 6568 ft 260 kts 351°
2026-04-21 19:49 55.67547 12.44237 7222 ft 264 kts 351°
2026-04-21 19:49 55.69338 12.43589 7904 ft 267 kts 351°
2026-04-21 19:49 55.71180 12.42920 8596 ft 271 kts 351°
2026-04-21 19:49 55.73044 12.42241 9305 ft 274 kts 351°
2026-04-21 19:50 55.74911 12.41560 10008 ft 277 kts 351°
2026-04-21 19:50 55.76837 12.40858 10453 ft 290 kts 351°
2026-04-21 19:50 55.78853 12.40125 10732 ft 306 kts 351°
2026-04-21 19:50 55.80994 12.39344 11017 ft 321 kts 351°
2026-04-21 19:51 55.83237 12.38522 11291 ft 335 kts 351°
2026-04-21 19:51 55.85552 12.37671 11754 ft 341 kts 351°
2026-04-21 19:51 55.87859 12.36820 12277 ft 345 kts 351°
2026-04-21 19:51 55.90233 12.35944 12835 ft 348 kts 351°
2026-04-21 19:52 55.92619 12.35063 13380 ft 352 kts 351°
2026-04-21 19:52 55.95007 12.34182 13935 ft 355 kts 351°
2026-04-21 19:52 55.97442 12.33282 14454 ft 358 kts 351°
2026-04-21 19:52 55.99890 12.32375 14968 ft 360 kts 351°
2026-04-21 19:53 56.02340 12.31467 15487 ft 362 kts 351°
2026-04-21 19:53 56.04824 12.30546 16010 ft 364 kts 351°
2026-04-21 19:53 56.07319 12.29619 16537 ft 367 kts 351°
2026-04-21 19:53 56.09806 12.28694 17051 ft 369 kts 352°
2026-04-21 19:54 56.12330 12.27755 17566 ft 371 kts 352°
2026-04-21 19:54 56.14882 12.26803 18074 ft 374 kts 352°
2026-04-21 19:54 56.17443 12.25847 18336 ft 378 kts 352°
2026-04-21 19:54 56.20062 12.24872 18369 ft 389 kts 351°
2026-04-21 19:55 56.22705 12.23884 18363 ft 392 kts 351°
2026-04-21 19:55 56.25389 12.22875 18361 ft 393 kts 351°
2026-04-21 19:55 56.28070 12.21867 18362 ft 393 kts 351°
2026-04-21 19:55 56.30713 12.20871 18365 ft 393 kts 351°
2026-04-21 19:56 56.33395 12.19861 18361 ft 393 kts 351°
2026-04-21 19:56 56.36068 12.18852 18363 ft 393 kts 351°
2026-04-21 19:56 56.38760 12.17836 18362 ft 393 kts 351°
2026-04-21 19:56 56.41422 12.16829 18363 ft 393 kts 351°
2026-04-21 19:57 56.44099 12.15815 18363 ft 393 kts 351°
2026-04-21 19:57 56.46776 12.14799 18362 ft 393 kts 351°
2026-04-21 19:57 56.49462 12.13779 18363 ft 393 kts 351°
2026-04-21 19:57 56.52118 12.12768 18358 ft 393 kts 351°
2026-04-21 19:58 56.54805 12.11763 18360 ft 392 kts 352°
2026-04-21 19:58 56.57494 12.10920 18364 ft 392 kts 354°
2026-04-21 19:58 56.60196 12.10194 18360 ft 391 kts 354°
2026-04-21 19:58 56.62863 12.09514 18361 ft 391 kts 355°
2026-04-21 19:59 56.65560 12.08823 18361 ft 391 kts 354°
2026-04-21 19:59 56.68267 12.08108 18359 ft 391 kts 354°
2026-04-21 19:59 56.70964 12.07374 18360 ft 391 kts 354°
2026-04-21 19:59 56.73664 12.06623 18360 ft 391 kts 354°
2026-04-21 20:00 56.76325 12.05873 18360 ft 391 kts 354°
2026-04-21 20:00 56.79023 12.05108 18358 ft 392 kts 353°
2026-04-21 20:00 56.81728 12.04338 18361 ft 391 kts 353°
2026-04-21 20:00 56.84427 12.03570 18362 ft 391 kts 353°
2026-04-21 20:01 56.87082 12.02813 18360 ft 391 kts 353°
2026-04-21 20:01 56.89779 12.02045 18358 ft 389 kts 353°
2026-04-21 20:01 56.92416 12.01289 18357 ft 374 kts 353°
2026-04-21 20:01 56.94929 12.00565 18356 ft 356 kts 353°
2026-04-21 20:02 56.97321 11.99880 18185 ft 349 kts 354°
2026-04-21 20:02 56.99728 11.99194 17915 ft 348 kts 353°
2026-04-21 20:02 57.02124 11.98514 17627 ft 347 kts 354°
2026-04-21 20:02 57.04493 11.98162 17362 ft 344 kts
2026-04-21 20:03 57.06873 11.98534 17100 ft 341 kts
2026-04-21 20:03 57.09224 11.99117 16840 ft 340 kts
2026-04-21 20:03 57.11570 11.99715 16571 ft 339 kts
2026-04-21 20:03 57.13893 12.00302 16315 ft 332 kts
2026-04-21 20:04 57.16154 12.00868 16118 ft 322 kts
2026-04-21 20:04 57.18310 12.01405 15898 ft 310 kts
2026-04-21 20:04 57.20402 12.01921 15169 ft 301 kts
2026-04-21 20:04 57.22484 12.02444 14295 ft 300 kts
2026-04-21 20:05 57.24565 12.02968 13777 ft 300 kts
2026-04-21 20:05 57.26624 12.03484 13351 ft 295 kts
2026-04-21 20:05 57.28627 12.03985 12523 ft 289 kts
2026-04-21 20:05 57.30649 12.04494 11341 ft 297 kts
2026-04-21 20:06 57.32656 12.04997 10669 ft 288 kts
2026-04-21 20:06 57.34606 12.05485 10006 ft 278 kts
2026-04-21 20:06 57.36514 12.05969 9188 ft 274 kts
2026-04-21 20:06 57.38389 12.06441 8375 ft 270 kts
2026-04-21 20:07 57.40187 12.06893 7620 ft 267 kts
2026-04-21 20:07 57.41999 12.07350 6854 ft 264 kts
2026-04-21 20:07 57.43797 12.07995 6059 ft 260 kts 17°
2026-04-21 20:07 57.45443 12.09186 5629 ft 243 kts 25°
2026-04-21 20:08 57.46892 12.10491 5343 ft 225 kts 26°
2026-04-21 20:08 57.48254 12.11728 5077 ft 209 kts 26°
2026-04-21 20:08 57.49521 12.12865 4849 ft 193 kts 26°
2026-04-21 20:08 57.50660 12.13870 4661 ft 173 kts 25°
2026-04-21 20:09 57.51708 12.14791 4402 ft 159 kts 25°
2026-04-21 20:09 57.52682 12.15654 4068 ft 151 kts 25°
2026-04-21 20:09 57.53621 12.16499 3621 ft 152 kts 25°
2026-04-21 20:09 57.54584 12.17374 3160 ft 154 kts 25°
2026-04-21 20:10 57.55511 12.18219 2968 ft 139 kts 25°
2026-04-21 20:10 57.56357 12.19000 2968 ft 134 kts 25°
2026-04-21 20:10 57.57226 12.19777 2604 ft 147 kts 24°
2026-04-21 20:10 57.58176 12.20639 2120 ft 152 kts 24°
2026-04-21 20:11 57.59106 12.21479 1863 ft 143 kts 23°
2026-04-21 20:11 57.59960 12.22243 1651 ft 133 kts 24°
2026-04-21 20:11 57.60772 12.22979 1454 ft 126 kts 23°
2026-04-21 20:11 57.61570 12.23701 1290 ft 128 kts 24°
2026-04-21 20:12 57.62374 12.24431 1104 ft 129 kts 24°
2026-04-21 20:12 57.63171 12.25154 939 ft 131 kts 24°
2026-04-21 20:12 57.63711 12.25646 824 ft 132 kts 24°
2026-04-21 20:12 57.64790 12.26635 588 ft 135 kts 25°
2026-04-21 20:13 57.65619 12.27373 508 ft 125 kts 26°
2026-04-21 20:13 57.66228 12.27937 516 ft 52 kts 26°
2026-04-21 20:13 57.66493 12.28176 518 ft 41 kts 26°
2026-04-21 20:13 57.66682 12.28500 518 ft 35 kts 50°
2026-04-21 20:14 57.66784 12.28761 519 ft 0 kts 47°
2026-04-21 20:14 57.66790 12.28771 519 ft 5 kts 45°
2026-04-21 20:15 57.66818 12.28884 521 ft 12 kts 89°
2026-04-21 20:15 57.66783 12.29060 522 ft 18 kts 117°
2026-04-21 20:15 57.66741 12.29219 522 ft 0 kts 116°
2026-04-21 20:15 57.66734 12.29246 522 ft 0 kts 116°